Regional Weather Roundup
Issued by NWS

Home | Current Version | Previous Version | Text Only | Print | Product List | Glossary On
Versions: 1 2 3 4 5 6 7 8 9 10 11 12 13 14 15 16 17 18 19 20 21 22 23 24 25 26 27 28
000
ASUS45 KTFX 230610
RWRMT
MONTANA REGIONAL WEATHER ROUNDUP
NATIONAL WEATHER SERVICE GREAT FALLS MT
1200 AM MDT SUN APR 23 2017

NOTE: "FAIR" INDICATES FEW OR NO CLOUDS BELOW 12000 FEET WITH NO
SIGNIFICANT WEATHER AND/OR OBSTRUCTIONS TO VISIBILITY.

MTZ001>007-043-230700-
WEST OF THE DIVIDE

CITY           SKY/WX    TMP DP  RH WIND       PRES   REMARKS
KALISPELL      MOCLDY    44  38  79 N5        29.85F
MISSOULA       CLOUDY    49  35  58 CALM      29.87F
BUTTE          PTCLDY    47  27  45 CALM      29.94F
MULLAN PASS    CLOUDY    34  33  96 NW6       29.93F WCI  29
ANACONDA         N/A     45  25  45 S7        29.91F
DEER LODGE       N/A     45  28  53 CALM      29.93F
EUREKA           N/A     54  34  47 S3        29.90R
HAMILTON         N/A     48  30  49 CALM      29.87F
LIBBY            N/A     48  41  76 CALM      29.91F
RONAN            N/A     45  37  73 NE1       29.92S
$$

MTZ008-052>055-230700-
SOUTHWEST MONTANA

CITY           SKY/WX    TMP DP  RH WIND       PRES   REMARKS
BOZEMAN        MOCLDY    43  36  76 E5        29.92F
DILLON         CLOUDY    48  28  46 S7        29.93F
W YELLOWSTONE  CLOUDY    34  27  75 CALM      30.04F
ENNIS          CLOUDY    46  27  46 S13       30.00F
THREE FORKS      N/A     52  52 100 SW10      29.91F
TWIN BRIDGES     N/A     47  27  46 SE3       29.94F
$$

MTZ009-010-012-014-046-048-049-054-230700-
EAST SLOPES AND CENTRAL MONTANA

CITY           SKY/WX    TMP DP  RH WIND       PRES   REMARKS
CUT BANK       CLOUDY    43  38  82 SE13      29.89F
GREAT FALLS    CLOUDY    45  39  79 NE6       29.87S
MALMSTROM AFB  CLOUDY    46  41  82 N6        29.87S
HELENA         CLOUDY    50  36  58 W5        29.87F
AUGUSTA          N/A     42  36  80 NE12      29.88S
BOWMANS CRNR   MOCLDY    47  33  57 W7        29.86F
CHOTEAU          N/A     39  37  93 N7        29.91S
FAIRFIELD      MOCLDY    44  38  78 CALM      29.87F
POWER          MOCLDY    45  39  81 E12       29.86F
RAYNESFORD     MOCLDY    46  36  68 CALM      29.88S
ULM            CLOUDY    46  40  81 E5        29.87R
$$

MTZ011-013-016-021-045-047-050-051-230700-
NORTH CENTRAL MONTANA

CITY           SKY/WX    TMP DP  RH WIND       PRES   REMARKS
HAVRE          CLOUDY    45  40  82 E20       29.92F
LEWISTOWN      CLOUDY    48  37  65 E8        29.89F
N BAR RANCH      N/A     43  36  75 CALM      29.95F
CHINOOK          N/A     46  41  81 E10       29.96S
DENTON         CLOUDY    46  37  72 E5        29.85F
FORT BENTON      N/A     50  39  66 MISG      29.87F
GEYSER         MOCLDY    46  37  71 SW9       29.87S
GRASS RANGE    MOCLDY    43  38  82 W6        29.88F
JUDITH GAP     MOCLDY    47  36  66 S10       29.91F
STANFORD         N/A     43  37  79 S12       29.89F
WINIFRED       MOCLDY    45  39  79 E13       29.88F
$$

MTZ017>020-022>027-061-062-230700-
NORTHEAST MONTANA

CITY           SKY/WX    TMP DP  RH WIND       PRES   REMARKS
GLASGOW        MOCLDY    41  35  79 E24G30    29.99F
JORDAN           N/A     47  42  83 E14       29.96F
SIDNEY         CLOUDY    40  34  79 E10       30.08F
WOLF POINT     CLOUDY    42  34  73 E17       30.06S
MALTA          CLOUDY    45  41  87 E17       29.98S
PLENTYWOOD       N/A     36  32  87 E14G20    30.12R WCI  27
POPLAR           N/A     39  34  81 E16       30.08R WCI  30
SCOBEY           N/A     36  28  73 E20       30.05S WCI  25
$$

MTZ028>42-056>058-230700-
SOUTHCENTRAL AND SOUTHEAST MONTANA

CITY           SKY/WX    TMP DP  RH WIND       PRES   REMARKS
BAKER          CLOUDY    46  42  86 E17       29.99S
BILLINGS       CLOUDY    47  39  74 NW8       29.91F
LIVINGSTON     CLOUDY    44  37  76 CALM      29.91F
MILES CITY     CLOUDY    46  41  82 N10       29.94F
BIG TIMBER     MOCLDY    45  39  81 CALM      29.95S
EKALAKA          N/A     48  38  68 SE8       29.95F
LAUREL           N/A     48  33  56 CALM      29.91S
ROUNDUP          N/A     46  37  70 CALM      29.84S
$$

REGIONAL REPORTS...DAKOTAS

CITY           SKY/WX    TMP DP  RH WIND       PRES   REMARKS
WILLISTON      CLOUDY    38  34  85 E12       30.12F WCI  30
MINOT          CLOUDY    33  28  81 E17       30.20S WCI  22
DICKINSON      CLOUDY    36  33  89 E18       30.04F WCI  26
BEACH          MOCLDY    39  39 100 E21       30.04F WCI  29
TIOGA          CLOUDY    32  32 100 E17G24    30.15S WCI  21
WATFORD CITY   CLOUDY    37  34  87 E18G28    30.10S WCI  27
BISMARCK       CLOUDY    38  31  76 E16       30.15S WCI  29
GRAND FORKS    CLOUDY    35  26  69 N21       30.24R WCI  24
FARGO          CLOUDY    37  33  85 N16       30.18R WCI  28
BUFFALO SD       N/A     50  40  68 E10       29.90F
RAPID CITY     CLEAR     40  32  73 S8        30.01F
$$

REGIONAL REPORTS...WYOMING/IDAHO/WASHINGTON

CITY           SKY/WX    TMP DP  RH WIND       PRES   REMARKS
GILLETTE       CLOUDY    46  34  62 S14       29.96F
SHERIDAN       CLOUDY    38  35  89 W3        29.93F
BUFFALO WY     CLOUDY    44  33  65 W8        29.96F
CODY           CLOUDY    42  38  85 CALM      29.98F
YELLOWSTONE LA   N/A     27  24  89 CALM      30.09F
IDAHO FALLS    PTCLDY    47  31  53 CALM      30.00F
SALMON         CLOUDY    52  28  40 SE5       29.89F
BOISE          CLOUDY    62  30  29 E12       29.78F
SPOKANE        CLOUDY    49  39  68 S7        29.90S
$$

REGIONAL REPORTS...ALBERTA

CITY           SKY/WX    TMP DP  RH WIND       PRES   REMARKS
EDMONTON       CLOUDY    32  21  64 E14       30.11F WCI  22
CALGARY        LGT RAIN  37  36  93 E14G21    29.94F WCI  29
LETHBRIDGE     CLEAR     41  37  87 E10       29.87F
MEDICINE HAT   CLOUDY    45  39  81 E15G23    29.94F
WATERTON GATE    N/A     43  37  81 N7          N/A
CARDSTON         N/A     41  36  81 W3          N/A
MILK RIVER       N/A     43  39  87 S8          N/A
$$

REGIONAL REPORTS...SASKATCHEWAN

CITY           SKY/WX    TMP DP  RH WIND       PRES   REMARKS
SWIFT CURRENT  LGT RAIN  37  30  75 E22G28    30.06F WCI  27
REGINA         CLOUDY    37  28  70 E13       30.17S WCI  29
SASKATOON      MOCLDY    34  23  64 E8        30.24S WCI  27
CYPRESS HILLS    N/A     36  34  93 E9          N/A  WCI  29
VAL MARIE        N/A     39  36  87 E20         N/A  WCI  30
$$




USA.gov is the U.S. government's official web portal to all federal, state and local government web resources and services.